User: anonymous   Login
Location: Unspecified
(50.7693°N, 0.0000°E)
Time: 15:07:32
(UTC+00:00)
Language:

Transit 2A - Orbit

View from above orbital plane
View from above orbital plane
View from above satellite
View from above satellite

Ground track
Ground track

The orbit data is extracted from the following two-line orbital elements,

1    45U 60007A   19293.49173533 -.00000056  00000-0  12871-4 0  9996
2    45  66.6936 295.8762 0250092 132.2153 230.0472 14.33652142 88163
Epoch (UTC): 20 October 2019 11:48:05
Eccentricity: 0.0250092
inclination: 66.6936°
perigee height: 600 km
apogee height: 958 km
right ascension of ascending node: 295.8762°
argument of perigee: 132.2153°
revolutions per day: 14.33652142
mean anomaly at epoch: 230.0472°
orbit number at epoch: 8816

The dashed part of the orbit path shows where the satellite is in the earth's shadow,  

DLR